This demonstration page uses our WeatherBlox Daily Observations layout. Learn more.

Left ArrowRight Arrow

Hourly Observations for May 29, 2020

Temp ( °F °C ) Dew Point ( °F °C ) Humidity (%) Winds ( mph kmh ) Pressure ( in mb ) Visibility ( mi km ) Precip ( " mm )
12:53 am 00:53 Clear 73 22.8 45 7.2 37 37 E 10 17 30.04 1017 10 16 0.00 0.00
1:53 am 01:53 Clear 71 21.7 46 7.8 41 41 E 8 13 30.05 1018 10 16 0.00 0.00
2:53 am 02:53 Clear 69 20.6 46 7.8 44 44 E 9 15 30.05 1018 10 16 0.00 0.00
3:53 am 03:53 Clear 67 19.4 46 7.8 47 47 E 6 9 30.05 1018 10 16 0.00 0.00
4:53 am 04:53 Clear 64 17.8 46 7.8 52 52 NNE 5 7 30.06 1018 10 16 0.00 0.00
5:53 am 05:53 Clear 61 16.1 46 7.8 58 58 NW 5 7 30.10 1019 10 16 0.00 0.00
6:53 am 06:53 Sunny 58 14.4 45 7.2 62 62 N 7 11 30.11 1020 10 16 0.00 0.00
7:53 am 07:53 Sunny 64 17.8 47 8.3 54 54 ENE 3 6 30.13 1020 10 16 0.00 0.00
8:53 am 08:53 Sunny 73 22.8 53 11.7 50 50 ESE 12 19 30.13 1020 10 16 0.00 0.00
9:53 am 09:53 Sunny 76 24.4 55 12.8 48 48 ESE 13 20 30.14 1021 10 16 0.00 0.00
10:53 am 10:53 Sunny 79 26.1 52 11.1 39 39 ESE 12 19 30.12 1020 10 16 0.00 0.00
12:53 pm 12:53 Sunny 84 28.9 49 9.4 30 30 ESE 9 15 30.10 1019 10 16 0.00 0.00
1:53 pm 13:53 Sunny 87 30.6 48 8.9 26 26 E 10 17 30.08 1019 10 16 0.00 0.00
2:53 pm 14:53 Sunny 88 31.1 45 7.2 22 22 ESE 10 17 30.05 1018 10 16 0.00 0.00
3:53 pm 15:53 Sunny 89 31.7 43 6.1 20 20 SE 16 26 30.04 1017 10 16 0.00 0.00
4:53 pm 16:53 Sunny 90 32.2 43 6.1 19 19 SSE 12 19 30.02 1017 10 16 0.00 0.00
5:53 pm 17:53 Sunny 89 31.7 43 6.1 20 20 ESE 10 17 30.01 1016 10 16 0.00 0.00
6:53 pm 18:53 Sunny 90 32.2 44 6.7 20 20 ESE 16 26 30.00 1016 10 16 0.00 0.00
7:07 pm 19:07 Sunny 89 31.7 44 6.7 21 21 SE 14 22 29.89 1012 10 16 0.00 0.00
7:53 pm 19:53 Sunny 88 31.1 44 6.7 22 22 ESE 14 22 30.00 1016 10 16 0.00 0.00
8:53 pm 20:53 Clear 84 28.9 45 7.2 25 25 SE 13 20 30.00 1016 10 16 0.00 0.00
9:53 pm 21:53 Clear 80 26.7 45 7.2 29 29 SE 7 11 30.01 1016 10 16 0.00 0.00
10:53 pm 22:53 Clear 78 25.6 45 7.2 31 31 SE 8 13 30.04 1017 10 16 0.00 0.00
11:53 pm 23:53 Clear 76 24.4 48 8.9 37 37 ESE 10 17 30.06 1018 10 16 0.00 0.00

Powered by AerisWeather